Location: Unspecified
(0.0000°N, 0.0000°E)
Time: 06:19:31
(UTC+01:00)

SeaSat 1 - Visible Passes

Search period start: 26 November 2014 00:00
Search period end: 06 December 2014 00:00
Orbit: 747 x 749 km, 108.0° (Epoch: 25 November)

Date Brightness Start Highest point End Pass type
(mag) Time Alt. Az. Time Alt. Az. Time Alt. Az.
27 Nov 4.5 05:53:16 10° SE 05:57:21 26° ENE 06:01:24 10° NNE visible
28 Nov 4.1 19:16:42 10° N 19:21:07 34° WNW 19:25:34 10° SW visible
29 Nov 4.3 06:07:30 10° SE 06:11:48 31° ENE 06:16:05 10° N visible
30 Nov 4.3 19:31:20 10° N 19:35:34 30° WNW 19:39:49 10° SW visible
01 Dec 4.0 06:21:46 10° SE 06:26:15 36° ENE 06:30:43 10° N visible
02 Dec 4.5 19:46:01 10° NNW 19:50:01 25° WNW 19:54:02 10° WSW visible
04 Dec 5.3 05:57:40 10° E 05:59:18 12° ENE 06:00:56 10° NE visible
04 Dec 4.7 20:00:44 10° NNW 20:04:27 22° WNW 20:08:11 10° WSW visible
05 Dec 2.6 19:18:07 10° NNE 19:23:02 79° WNW 19:27:57 10° SSW visible
